Wind_Speed
30 31 33 34 35 35 34 34 33 33 32 32 33 32 31 31 30 30 31 30 30 30 30 30 29 29 29 28 27 26 26 26 24 23 22 21 20 20 20 19 16 9 8 12 15 16 18 18 18 19 19 18 18 17 17 17 17 18 20 20 20 20 19
28 30 32 33 34 35 35 35 34 34 33 33 33 32 32 31 30 31 31 30 30 31 30 30 30 29 28 28 27 27 26 25 25 24 23 23 21 21 21 21 20 15 9 8 12 14 16 17 17 18 18 16 17 17 15 15 16 16 18 19 19 19 20
26 28 30 32 34 35 35 35 35 34 34 34 34 33 32 32 31 31 31 31 31 30 29 29 30 29 29 28 27 27 26 25 25 24 24 25 24 22 22 22 22 19 13 9 9 12 15 16 17 18 18 16 16 16 15 16 16 16 17 17 18 20 22
23 25 28 31 33 34 35 35 34 34 35 35 35 34 33 32 32 32 31 32 31 30 30 29 29 29 29 28 27 27 27 26 25 24 24 24 25 25 24 23 23 22 18 12 10 11 14 15 16 18 17 16 16 16 15 15 16 16 16 16 17 17 20
22 24 26 29 32 34 35 35 35 35 35 35 35 35 34 33 32 32 32 32 31 31 31 30 29 29 29 29 28 27 27 28 28 27 25 24 25 26 25 23 23 22 19 15 13 13 14 15 16 18 18 16 16 16 15 15 15 15 16 17 17 15 15
22 24 26 29 31 33 34 35 36 36 36 36 35 34 34 33 32 32 31 31 31 31 31 31 30 29 29 30 29 27 27 28 29 29 28 26 24 23 23 22 21 20 18 17 16 15 14 15 15 17 17 16 15 16 16 16 14 14 14 15 15 15 14
23 24 27 29 31 33 34 35 35 36 36 35 35 34 33 33 32 32 31 31 31 30 30 30 30 29 29 29 29 29 29 28 28 27 28 29 26 22 21 21 20 19 18 18 16 15 15 15 15 16 17 15 14 14 15 15 13 12 12 13 13 13 13
24 26 28 29 31 33 34 35 35 35 35 35 34 33 33 33 32 31 31 30 30 30 30 29 29 29 29 29 28 29 30 30 28 27 26 27 26 23 21 21 20 20 19 18 16 15 15 14 14 15 15 14 13 13 14 14 13 12 12 12 12 12 12
29 29 30 30 31 33 34 34 35 35 35 35 34 34 33 33 32 31 30 29 29 29 29 30 30 29 30 30 29 29 31 31 29 27 27 26 26 25 23 21 20 20 19 17 15 14 14 12 13 14 13 13 13 13 14 13 10 10 12 12 12 13 12
34 31 31 31 32 33 34 34 36 36 36 36 35 35 34 33 31 30 30 29 28 28 29 30 30 30 31 31 28 26 28 29 28 27 27 27 27 27 26 23 21 20 19 17 15 14 14 11 12 14 14 14 14 14 13 11 9 10 11 11 10 11 12
38 35 34 34 34 34 34 35 36 35 36 36 37 36 35 33 31 30 30 29 28 28 28 28 29 30 31 31 29 27 27 28 28 27 26 26 26 27 28 27 24 22 21 18 16 16 16 13 13 15 16 15 14 13 11 10 9 9 9 8 6 7 8
43 41 38 36 35 35 35 36 36 35 35 37 37 37 35 34 33 31 30 29 28 28 26 26 27 28 30 31 30 29 28 27 27 27 27 27 26 25 27 28 29 27 25 22 19 17 18 18 17 17 17 16 14 13 10 9 8 8 8 8 7 6 8
42 42 40 36 35 35 35 36 35 34 36 37 38 38 36 34 34 33 31 30 29 28 26 25 24 24 26 29 29 29 30 29 29 28 28 28 27 26 26 27 28 29 28 27 25 21 20 22 20 18 19 17 14 13 11 9 9 8 7 8 8 9 12
39 41 41 38 36 35 35 35 33 33 36 37 37 39 36 33 33 34 33 31 30 29 27 26 25 23 23 25 28 29 29 30 31 31 29 28 27 28 29 28 28 28 28 28 28 26 25 24 22 21 19 17 14 14 14 12 11 10 8 9 11 12 13
39 40 40 36 33 33 33 32 30 32 36 36 36 37 35 30 30 33 33 32 32 31 30 29 27 25 24 24 26 29 28 28 29 30 30 28 27 27 28 30 30 29 28 27 27 28 28 26 23 22 19 17 15 15 16 14 12 11 9 9 12 13 13
37 37 35 31 29 30 31 30 29 32 34 34 34 35 32 27 27 31 32 32 32 33 32 30 29 28 26 25 25 25 26 27 27 27 28 28 28 28 27 29 31 30 28 27 27 27 28 26 24 22 20 19 17 17 17 16 14 12 11 10 11 12 15
37 36 31 28 28 29 29 28 28 30 32 32 33 33 29 25 24 28 32 33 33 32 31 30 30 30 29 28 27 25 25 26 27 27 27 27 29 29 27 28 29 29 28 28 28 27 26 25 23 22 21 21 20 19 19 18 16 15 13 9 6 7 11
40 36 29 27 27 27 28 27 27 28 30 30 31 31 28 24 21 25 30 32 31 31 32 30 30 31 30 31 30 28 27 27 27 28 29 29 28 28 28 28 28 28 28 29 28 28 28 27 25 24 24 23 21 20 20 20 19 17 14 11 8 7 10
38 32 27 27 26 25 26 26 26 27 28 29 30 30 27 24 21 20 23 24 24 27 30 29 28 29 31 31 30 29 28 28 28 29 32 32 27 25 28 30 29 28 28 29 28 29 29 28 27 26 26 26 25 22 22 23 22 19 16 15 14 12 8
33 28 27 26 23 22 22 23 25 25 25 26 28 28 25 23 23 22 22 21 20 21 22 23 24 25 27 29 29 27 27 28 29 30 33 33 28 26 30 30 28 27 28 29 30 30 29 28 27 26 25 25 25 24 24 25 24 22 20 17 16 14 10
30 28 28 23 19 19 20 21 22 23 23 23 25 27 26 23 24 26 25 23 21 20 20 20 22 24 26 28 28 27 27 28 29 29 31 33 33 31 28 24 25 28 27 27 29 29 28 27 27 26 25 23 23 23 24 24 25 25 24 21 19 17 13
26 26 24 18 15 16 17 18 20 21 21 21 22 25 25 23 23 25 24 22 21 21 21 21 22 24 27 28 28 28 28 28 29 29 30 33 35 32 25 22 24 26 26 25 26 25 24 24 23 23 24 24 23 22 22 23 23 24 25 24 23 21 18
22 23 19 14 12 13 15 16 18 18 19 20 21 22 24 23 22 23 23 23 22 21 21 22 22 23 25 27 28 29 29 28 29 29 29 32 33 31 27 25 24 24 24 24 23 21 21 20 20 21 21 22 24 24 24 23 23 23 24 23 23 23 22
21 20 15 12 11 12 13 15 17 18 18 18 19 21 22 23 23 22 22 23 24 23 22 23 24 24 24 25 27 28 28 29 29 29 30 31 32 31 30 28 25 24 24 22 20 19 18 18 19 20 21 23 24 23 23 23 23 23 23 22 22 22 22
20 17 13 12 12 12 13 14 16 18 18 18 19 20 21 22 22 23 22 22 23 24 23 23 23 23 23 24 24 24 25 27 28 30 30 31 31 30 29 29 27 24 22 20 19 18 17 17 19 21 22 22 20 18 19 20 21 21 21 21 21 21 21
19 16 13 12 12 12 14 14 15 17 18 19 19 20 21 22 22 22 22 22 21 22 22 22 22 23 23 24 24 23 23 24 26 28 30 30 30 27 26 26 26 24 21 19 19 19 19 18 19 20 20 18 16 15 17 18 20 20 20 20 21 22 22
18 15 12 11 12 13 13 13 14 16 17 17 18 19 20 22 22 21 21 22 22 22 22 23 23 23 23 23 22 22 23 23 24 25 27 28 27 24 21 21 19 18 17 16 16 18 21 21 20 20 20 18 17 16 17 17 18 20 20 19 20 20 19
18 15 13 12 12 11 11 12 14 16 17 17 18 19 19 20 21 21 21 22 21 21 22 22 22 22 21 18 17 18 19 20 21 20 20 19 20 20 19 17 14 13 14 13 10 11 15 18 18 18 18 19 19 18 16 16 17 18 19 19 17 16 14
22 18 16 14 13 12 11 11 14 16 17 18 18 18 18 18 20 21 22 22 19 17 18 19 19 19 17 14 13 13 13 15 16 16 15 14 16 17 16 15 14 13 14 13 10 9 11 12 13 13 13 14 16 17 17 18 17 16 16 16 16 15 14
27 21 17 17 15 14 13 14 15 16 16 16 17 17 17 17 17 19 21 21 20 17 16 15 15 15 14 12 11 11 12 13 13 14 14 14 16 18 16 14 13 13 13 13 12 10 8 8 9 10 10 10 11 13 16 19 18 14 14 15 16 15 14
27 19 14 15 16 16 15 15 16 16 17 16 14 15 16 16 16 18 19 21 21 19 16 15 14 13 13 13 11 10 13 13 13 14 15 15 17 18 17 14 13 12 11 12 11 11 10 11 11 10 9 9 9 10 12 16 17 16 16 17 16 14 13
25 17 11 11 14 18 17 15 13 13 15 16 14 13 14 14 15 18 21 22 22 18 14 14 13 11 10 11 11 12 13 13 13 14 15 16 16 15 14 14 13 12 12 12 13 13 13 12 12 11 10 10 12 13 14 15 16 19 20 18 16 15 14
26 19 15 14 11 14 17 17 13 9 10 14 15 13 13 15 15 16 18 20 18 13 10 11 11 9 9 10 10 11 10 10 10 11 12 13 13 13 14 14 14 14 15 15 15 14 13 12 12 12 12 12 13 13 14 13 13 15 18 19 17 16 15
30 25 23 23 18 9 10 11 9 8 10 13 14 10 12 14 10 8 10 13 13 10 8 9 10 9 9 10 10 11 12 10 9 10 12 13 14 15 16 17 16 16 16 15 14 13 12 12 12 13 14 14 13 12 12 12 11 11 12 14 16 17 17
28 27 24 23 21 14 7 6 6 7 7 5 4 4 13 15 15 15 15 15 15 14 12 11 11 11 11 13 13 14 14 13 12 12 12 14 16 17 18 18 17 16 15 14 14 13 12 12 12 12 12 12 11 11 11 11 13 12 10 9 11 13 16
25 26 24 22 25 25 17 6 1 4 10 16 17 17 20 21 19 17 16 17 17 17 16 15 14 13 13 14 14 14 14 13 13 12 11 12 15 16 16 15 14 14 13 13 13 13 13 13 13 13 12 11 10 10 10 11 12 13 12 10 9 9 10
Wind_Direction
282 273 265 260 255 252 249 246 244 240 236 234 233 232 232 232 230 230 231 231 230 229 228 227 226 225 225 223 222 222 222 222 222 220 219 219 219 220 221 221 220 232 257 257 260 269 274 280 285 286 286 288 291 292 290 288 288 284 284 286 287 288 289
280 276 270 263 258 255 252 248 245 241 236 233 232 231 230 231 230 231 231 230 229 227 226 226 226 225 224 223 222 221 220 221 221 219 218 217 217 220 221 220 224 234 248 255 256 261 269 276 281 282 285 288 289 291 293 291 289 288 285 285 286 286 285
276 276 272 267 263 258 254 250 245 242 237 234 232 230 230 230 230 231 231 230 229 227 224 224 225 225 223 222 222 221 220 220 219 218 218 219 218 220 223 222 225 236 244 246 249 254 263 271 274 277 282 287 288 289 291 291 292 293 289 285 284 283 281
275 276 273 270 266 260 255 251 246 242 238 235 232 231 230 229 229 230 230 230 229 227 224 224 224 224 223 222 222 222 221 221 220 218 217 219 220 220 223 224 226 235 242 243 244 249 255 264 271 276 281 285 288 289 289 291 294 296 295 293 292 290 285
279 277 274 271 269 263 257 252 247 243 239 236 233 232 231 230 229 230 230 231 230 227 225 224 224 224 222 221 222 222 222 223 224 223 221 221 221 218 218 220 224 232 239 240 240 244 251 259 266 273 279 283 288 290 289 290 291 292 293 294 294 293 287
280 279 275 273 271 266 260 254 248 244 240 237 234 232 231 231 230 230 231 231 230 228 226 225 225 224 222 221 222 222 222 224 224 224 224 224 224 219 215 218 224 229 235 238 240 241 247 254 261 269 276 280 284 287 285 285 287 289 293 296 294 290 286
280 280 276 274 272 267 261 255 249 244 240 238 235 232 230 230 230 231 231 231 229 227 226 225 224 224 223 222 223 222 221 222 223 223 223 225 227 224 218 221 226 228 230 235 239 239 242 249 256 263 271 278 282 284 283 284 288 291 294 299 300 296 294
287 284 278 274 271 267 262 255 248 243 239 237 234 231 229 229 228 229 229 229 228 227 226 226 225 225 226 226 226 225 223 223 223 222 223 225 226 225 221 220 222 223 226 230 233 235 238 245 252 256 265 273 277 277 279 281 282 280 284 292 301 301 296
289 285 278 275 272 267 260 253 247 242 238 235 233 230 228 227 226 226 226 226 227 228 228 228 227 228 228 230 230 229 226 225 223 222 222 223 222 220 219 218 218 218 220 223 227 230 231 237 246 250 256 265 266 264 271 281 284 279 282 291 296 301 298
286 282 277 275 272 265 258 251 245 241 237 234 232 229 227 226 225 224 225 224 225 227 229 229 230 229 228 229 230 229 226 225 224 223 223 223 222 219 217 216 215 214 215 216 218 221 221 224 236 240 243 252 258 263 271 284 293 292 296 300 299 304 306
285 282 279 276 271 263 256 251 245 239 237 236 232 228 225 224 224 223 223 224 224 225 227 228 229 229 228 229 229 229 229 227 226 224 223 223 222 219 217 216 213 212 212 213 215 217 215 215 227 234 237 243 252 261 269 276 284 294 304 308 303 308 312
285 283 280 275 268 261 255 251 245 239 237 236 234 231 224 220 221 222 222 223 223 224 224 224 225 225 226 228 227 227 229 229 228 226 224 224 223 221 220 219 217 215 212 211 213 215 213 215 221 228 233 238 244 252 260 266 271 280 290 294 294 293 292
286 284 280 274 267 261 255 250 245 240 238 237 236 234 226 218 217 219 220 221 221 221 221 220 221 222 222 224 225 227 229 230 230 229 227 226 225 223 223 222 221 220 219 217 216 215 215 216 217 222 228 233 237 242 246 247 250 258 271 281 285 285 287
290 287 283 276 267 261 256 249 242 239 240 238 237 236 230 221 216 215 217 218 217 218 219 219 220 221 222 223 223 224 226 227 228 228 228 229 228 226 225 224 223 222 222 223 221 220 221 220 219 223 229 233 234 234 233 233 236 245 259 271 276 284 288
291 288 283 275 267 262 256 248 239 237 239 240 238 236 233 227 218 212 212 214 214 215 217 218 220 222 225 226 223 221 221 223 224 224 225 228 230 230 226 224 224 223 221 222 223 224 227 228 228 230 232 235 235 234 235 239 244 248 255 267 276 284 286
291 289 282 275 271 264 255 245 238 237 239 239 239 237 234 231 220 209 208 211 213 215 218 219 220 221 223 225 223 220 219 221 222 221 221 224 229 232 229 225 225 226 224 224 225 228 230 233 234 233 233 235 236 239 245 246 247 249 251 263 276 282 284
294 291 284 278 274 264 253 243 237 238 240 239 238 235 233 231 219 205 206 212 215 216 218 219 218 219 220 222 223 222 222 223 221 218 218 222 225 228 230 229 227 227 228 228 228 230 231 232 233 233 234 236 236 240 245 241 237 240 239 242 258 275 279
295 291 285 282 275 261 249 242 236 236 240 239 236 234 230 228 217 201 203 211 214 216 217 217 217 218 219 222 224 225 225 225 221 216 215 217 220 222 225 227 226 225 227 230 231 232 232 232 233 233 235 238 238 237 235 231 233 233 222 215 223 243 266
292 290 290 286 273 254 243 240 237 236 239 239 238 235 230 224 216 205 202 205 207 210 213 214 214 217 221 223 225 226 226 224 221 218 215 213 213 217 222 223 220 219 223 226 229 231 232 233 235 235 234 236 237 236 231 229 234 231 215 209 218 228 243
294 297 295 285 267 247 237 236 235 234 237 239 240 239 232 220 213 212 213 212 210 209 210 214 216 220 225 227 226 227 226 222 219 219 216 210 207 214 222 220 216 216 219 222 225 228 230 232 235 238 238 237 237 237 234 231 232 231 223 216 216 221 225
298 300 293 278 257 242 235 233 232 232 234 238 241 243 239 224 212 212 215 216 218 220 221 224 225 226 229 232 230 228 225 222 221 219 214 210 212 218 219 215 213 214 215 219 223 225 227 230 232 235 238 240 240 239 237 233 232 232 230 226 223 222 223
299 299 288 270 249 239 234 231 230 231 234 239 243 246 244 230 214 211 211 211 214 219 223 227 228 227 229 231 232 231 226 222 221 218 212 211 218 220 215 208 211 212 210 214 219 221 222 225 225 226 230 234 236 238 237 235 233 233 232 233 235 235 232
303 298 282 261 244 237 234 232 230 231 235 239 245 248 247 237 220 209 206 208 213 217 220 225 228 228 229 230 231 232 230 225 223 221 215 214 217 218 212 208 210 208 206 210 213 213 214 215 215 218 221 225 229 231 231 231 230 232 232 235 239 242 242
304 294 275 257 248 239 234 234 234 235 236 239 245 248 248 243 231 218 210 210 215 218 221 223 227 230 231 231 230 230 230 228 225 222 220 218 218 216 212 209 208 205 205 207 208 208 209 209 211 215 218 222 226 226 225 225 226 230 234 235 238 242 244
302 292 274 259 251 243 239 238 238 240 241 242 245 248 248 245 240 232 223 214 211 213 218 223 227 229 231 232 232 231 229 227 224 222 221 220 219 218 216 215 211 206 202 202 203 204 204 204 209 215 219 223 224 220 218 219 220 225 231 234 238 243 244
299 289 275 263 256 249 244 240 238 241 245 245 246 247 247 245 242 239 234 225 212 208 215 224 228 230 231 233 235 235 231 225 222 221 221 223 223 222 219 214 208 201 198 199 200 201 202 203 207 213 218 220 216 210 210 211 212 216 222 226 230 234 238
296 287 276 265 259 254 247 241 239 241 243 244 244 244 244 242 239 235 233 230 220 208 212 222 227 232 235 233 233 236 235 229 224 221 221 222 220 213 202 193 190 190 196 201 203 201 202 202 201 202 204 205 204 203 206 207 207 208 212 217 220 224 230
294 281 273 268 262 255 249 243 241 242 243 241 239 239 238 236 233 226 222 224 219 208 208 217 226 235 241 242 242 242 233 220 212 208 208 206 196 186 179 175 177 184 189 191 189 186 185 185 183 183 186 192 196 196 198 202 204 204 207 211 211 214 222
295 277 263 259 257 252 248 246 248 252 250 242 236 234 231 226 223 219 214 214 213 207 206 213 224 235 240 245 248 236 207 186 180 178 181 180 174 169 167 169 176 181 179 175 170 158 154 157 160 162 164 174 185 191 194 197 199 201 205 205 206 212 219
303 287 259 245 245 249 249 251 258 264 259 246 235 230 227 224 218 212 209 206 204 203 207 213 222 229 231 234 235 211 178 167 166 163 163 166 167 165 161 162 170 173 172 175 179 177 173 173 172 169 165 165 173 185 189 189 194 208 213 203 200 207 214
317 304 267 242 241 248 254 257 261 266 267 261 247 230 225 226 219 210 204 199 197 200 208 212 217 224 226 223 211 179 158 158 160 155 150 148 152 159 165 172 180 183 183 187 194 202 208 206 199 195 194 193 196 204 201 193 194 207 213 206 202 206 208
332 326 299 264 246 244 253 265 271 273 270 266 259 240 223 219 215 208 201 195 192 195 201 198 197 199 196 185 166 149 143 145 145 145 144 142 143 152 167 181 192 198 199 195 192 194 197 198 200 202 205 211 217 220 220 212 199 194 198 201 202 205 206
343 343 336 327 299 256 250 258 270 277 266 262 267 256 222 208 209 206 197 187 180 177 172 167 163 159 157 151 139 135 138 140 141 148 156 159 160 165 174 182 187 189 189 189 189 192 197 203 209 210 208 213 217 214 215 220 213 198 194 194 194 197 202
343 345 345 344 341 310 260 257 269 273 264 269 278 257 203 184 173 155 147 148 146 141 138 145 147 147 151 150 142 139 140 139 140 150 158 164 169 173 174 174 175 177 180 183 187 194 203 209 213 213 210 212 216 215 213 220 225 218 204 194 190 191 193
335 340 343 350 0 1 330 278 259 263 274 310 350 125 134 115 90 82 83 86 90 90 92 103 110 111 121 129 132 137 142 142 140 142 146 152 158 163 167 169 173 176 180 183 186 190 196 200 202 206 204 202 206 212 216 222 230 237 238 223 204 193 188
330 335 343 359 16 20 13 359 18 67 64 63 68 87 97 87 76 74 73 72 75 79 82 89 93 98 109 118 123 129 136 141 144 148 152 154 157 163 168 173 177 179 180 182 187 191 196 198 199 201 201 202 206 209 210 215 225 234 241 240 229 215 202
Height
739 738 737 735 734 733 732 731 730 729 729 729 728 728 729 729 730 729 729 730 730 731 731 731 731 731 732 733 734 734 735 735 736 736 737 738 738 739 740 741 742 742 740 739 739 740 740 740 740 738 737 737 736 735 734 734 733 732 731 730 728 727 727
734 734 733 731 730 729 728 727 726 725 725 724 724 724 724 725 725 725 725 725 725 726 727 728 728 728 729 730 731 731 732 732 733 733 734 734 735 736 737 738 739 739 738 737 737 738 738 739 738 737 736 735 734 734 733 732 732 731 730 728 727 725 725
728 729 729 727 726 725 724 723 722 721 720 719 719 719 719 720 721 721 721 721 721 721 723 724 724 724 726 727 728 728 729 730 730 730 730 731 732 733 734 735 736 736 736 735 735 736 737 737 737 735 734 734 733 732 732 731 730 729 728 727 725 724 723
721 723 723 723 722 720 719 718 718 717 716 715 715 715 715 715 716 716 716 717 717 718 718 719 720 721 722 724 724 725 726 727 727 727 728 728 729 730 731 732 733 734 733 733 733 734 735 735 735 734 733 733 732 731 730 729 728 727 725 724 723 722 721
716 717 718 718 717 716 715 714 713 713 712 711 710 710 710 711 711 712 712 713 713 714 714 715 716 717 719 720 721 722 723 724 724 725 725 725 726 726 728 729 730 731 731 731 731 732 733 734 734 732 731 731 730 729 728 727 726 725 723 722 721 720 719
711 711 712 712 712 711 710 709 709 708 707 707 706 706 706 706 707 707 708 709 709 710 710 711 712 714 715 716 717 718 719 720 721 722 722 723 723 724 725 726 727 728 729 729 729 730 731 732 732 731 730 730 729 728 726 725 724 723 722 721 719 718 718
706 706 706 706 706 706 705 704 703 702 702 702 702 702 702 702 703 703 704 705 705 706 707 707 709 710 711 712 713 714 716 717 718 719 719 720 720 721 722 723 724 725 726 727 728 728 729 729 730 730 729 728 728 727 726 724 723 722 721 721 719 719 718
703 702 702 701 700 700 699 698 697 697 697 697 697 697 697 698 698 699 699 700 701 702 703 704 705 706 708 709 710 711 712 713 714 715 716 717 718 719 719 720 722 723 724 725 726 726 727 727 728 728 727 727 727 726 724 723 722 721 721 720 719 719 719
701 699 697 695 695 694 693 692 691 691 692 692 693 693 693 693 694 694 695 696 697 698 699 700 701 703 705 706 707 708 708 710 711 712 713 714 715 716 717 718 719 721 722 723 723 724 725 726 726 725 725 725 725 725 723 722 722 721 720 719 719 719 718
697 694 692 690 689 688 687 686 685 685 686 687 687 687 688 688 689 690 691 692 693 694 695 697 698 699 701 703 704 705 705 707 708 709 710 711 712 713 714 715 717 718 719 720 721 721 723 723 723 723 723 723 723 723 722 721 721 720 719 719 719 718 717
691 688 686 684 683 682 681 679 679 679 680 681 681 682 682 684 685 686 687 688 689 690 691 693 695 696 697 699 700 702 702 703 705 706 707 708 709 710 711 712 713 714 716 717 718 719 720 720 720 720 720 721 721 721 721 720 720 719 719 718 718 717 716
685 682 680 679 676 675 674 673 673 674 674 675 675 676 677 678 680 682 683 684 685 686 688 690 691 693 694 695 697 698 699 700 701 703 704 705 706 707 708 709 710 711 712 713 715 716 717 717 717 718 718 718 719 719 719 719 719 718 718 717 717 716 715
679 676 674 672 670 668 667 667 667 668 668 669 670 671 672 673 674 676 678 680 681 683 685 687 688 690 691 692 694 695 696 697 698 699 701 702 703 704 705 706 707 708 709 710 711 712 713 713 714 715 715 716 717 718 718 718 717 717 717 717 716 715 714
674 671 669 666 664 662 661 660 662 663 663 663 664 665 667 668 669 671 673 675 677 679 681 683 685 686 688 689 690 691 692 693 695 696 697 698 700 701 702 703 704 705 706 707 708 709 709 710 712 712 713 714 715 716 716 716 716 716 716 716 715 715 714
669 665 662 660 658 656 655 655 656 657 657 658 659 660 663 664 664 666 669 671 673 675 677 680 682 683 685 686 686 687 689 690 691 692 694 695 696 697 698 699 700 701 703 704 705 706 706 708 710 711 712 713 713 714 714 714 715 715 715 715 714 714 713
665 660 657 655 654 652 650 650 652 652 653 654 655 656 659 660 660 662 664 667 669 671 674 676 678 680 682 682 683 683 685 686 687 689 690 692 693 694 695 695 696 698 700 702 702 703 705 706 708 709 710 711 712 712 713 714 714 714 715 715 714 713 713
661 657 653 651 650 648 646 646 648 649 649 650 652 653 655 657 657 658 660 663 665 668 670 672 674 676 678 678 679 680 681 683 684 685 687 688 690 691 692 692 693 696 698 699 700 701 702 704 706 707 708 709 710 710 711 712 713 713 714 714 714 714 713
657 653 650 648 646 645 643 643 644 645 646 647 648 649 651 653 654 655 657 659 662 664 666 668 670 672 673 674 675 677 678 679 680 681 682 684 686 687 688 688 690 693 694 696 697 699 700 701 703 704 705 706 707 708 709 709 709 710 712 713 713 713 712
653 649 647 645 642 641 640 640 641 642 643 644 644 646 648 650 651 652 654 656 659 661 662 664 666 668 669 669 671 672 674 675 676 677 677 679 683 684 683 683 686 689 691 692 694 695 696 698 699 701 702 703 703 705 706 706 707 708 710 711 711 712 712
650 646 644 642 640 638 638 638 639 640 641 642 642 642 644 646 647 649 651 653 655 657 659 661 662 664 665 666 667 668 669 670 672 673 673 676 679 678 677 679 683 685 687 689 690 691 693 695 696 697 699 699 700 701 703 703 704 706 707 708 709 710 711
648 645 641 639 637 636 636 637 637 638 639 640 640 640 641 643 644 645 648 650 652 654 656 657 659 660 661 662 663 664 665 666 668 669 670 672 672 672 673 677 680 681 684 686 687 689 691 692 693 695 695 696 697 698 699 701 701 702 704 705 706 707 708
646 643 639 637 636 635 635 636 636 636 637 639 639 638 638 640 641 642 644 647 649 651 652 654 655 656 657 659 659 660 661 662 664 665 666 667 667 669 672 675 676 678 681 683 684 686 688 689 690 691 692 693 694 695 696 698 698 699 701 702 703 705 706
644 641 638 636 635 635 634 635 635 635 636 637 637 637 637 637 638 640 641 643 645 647 649 651 652 653 654 655 656 656 657 658 660 661 663 663 663 666 670 672 673 676 678 680 681 683 684 685 687 688 689 690 691 692 693 694 695 696 698 700 701 702 703
642 640 637 636 635 634 634 634 634 634 635 635 635 635 635 635 636 637 638 640 642 644 646 648 649 650 651 651 651 652 653 655 656 658 659 659 660 663 667 669 671 673 674 676 678 679 681 682 684 685 686 686 687 688 690 692 693 694 696 697 698 699 701
641 638 636 635 634 633 633 632 632 632 633 633 633 633 633 633 634 635 636 637 638 641 643 645 646 647 647 648 648 649 650 651 652 654 655 656 658 661 663 666 668 669 671 673 675 676 677 679 680 681 682 683 685 687 689 690 692 693 694 695 696 697 698
640 637 635 634 633 632 632 631 631 631 631 631 631 631 631 632 632 633 634 634 636 638 641 642 643 644 644 645 645 646 646 647 649 650 652 653 655 658 660 662 663 666 668 669 671 673 675 676 678 679 681 682 684 686 687 688 690 691 692 693 694 695 696
638 636 634 633 632 631 630 630 630 629 628 629 629 629 629 629 629 630 631 632 633 635 637 639 640 641 641 642 642 643 643 644 646 647 649 651 653 655 657 658 660 663 665 667 669 670 671 673 675 677 679 681 683 684 685 687 688 690 691 692 693 693 694
636 634 633 632 631 630 629 628 627 627 626 626 626 626 626 626 626 627 628 629 630 632 635 637 638 639 639 640 640 640 640 641 643 645 647 648 650 652 654 656 659 662 664 666 667 668 669 671 673 675 677 679 681 682 684 685 687 688 689 691 692 692 693
633 631 630 629 629 629 628 627 625 624 624 623 623 624 624 624 623 624 624 626 628 631 633 635 636 637 637 638 638 638 638 638 640 642 644 646 648 650 653 655 658 661 663 664 666 668 669 671 672 674 676 678 679 681 682 684 686 687 689 690 691 692 692
630 627 626 626 626 626 626 624 623 622 622 621 622 622 622 622 621 621 622 625 627 630 632 633 634 635 635 636 637 636 636 638 640 641 643 646 647 649 652 654 657 660 662 663 665 667 669 671 672 674 675 677 678 680 681 682 684 686 688 689 690 690 691
626 624 623 623 623 623 623 622 621 620 620 619 620 620 620 620 620 620 621 623 626 629 630 631 632 633 633 634 635 635 636 637 639 641 643 645 647 649 651 654 657 659 661 662 664 666 668 670 671 673 674 676 677 679 681 682 683 685 686 687 688 689 690
625 622 622 622 621 620 620 620 619 619 618 618 618 618 618 618 618 618 620 622 625 627 628 629 630 631 632 633 633 634 636 637 639 641 643 645 647 649 652 654 657 659 661 662 664 665 667 669 670 672 673 675 676 678 680 681 681 682 684 685 687 688 688
626 623 622 621 619 618 618 618 618 618 617 617 616 615 616 617 617 617 619 621 624 626 626 627 629 630 631 632 633 634 636 638 640 642 644 646 648 650 652 655 657 659 660 662 663 665 666 668 669 670 672 674 675 676 678 679 679 680 681 683 684 686 687
627 625 623 621 618 617 617 617 617 618 617 616 614 613 614 616 617 618 619 621 623 625 626 627 629 630 631 633 634 635 637 638 640 643 644 646 648 650 653 655 656 658 660 661 663 665 666 667 669 670 671 672 673 674 675 677 678 679 679 680 681 683 685
631 628 626 623 620 618 618 617 617 618 617 615 613 613 614 616 618 620 621 622 624 626 627 628 630 631 632 634 635 636 638 639 642 644 645 647 648 650 652 654 656 658 659 661 662 664 665 666 668 669 670 671 672 673 674 675 676 677 678 679 679 680 682
635 631 628 625 622 620 619 618 619 619 617 617 616 616 617 619 621 624 625 626 627 628 629 631 632 633 634 635 636 638 639 641 642 645 646 648 649 651 653 654 656 657 659 660 662 663 664 666 667 668 669 670 671 672 673 675 676 676 677 678 678 679 680